Time,TemperatureF,DewpointF,PressureIn,WindDirection,WindDirectionDegrees,WindSpeedMPH,WindSpeedGustMPH,Humidity,HourlyPrecipIn,Conditions,Clouds,dailyrainin,SoftwareType,DateUTC
2013-07-20 00:05:00,63.3,41.0,29.76,ENE,75,1.1,1.1,44,0.00,CLR,SKC,0.00,WeatherDisplay:10.37,2013-07-20 06:05:00,
2013-07-20 00:10:00,62.4,39.0,29.76,ENE,75,0.0,0.0,42,0.00,CLR,SKC,0.00,WeatherDisplay:10.37,2013-07-20 06:10:00,
2013-07-20 00:15:00,61.8,41.9,29.76,ENE,75,1.1,0.0,48,0.00,CLR,SKC,0.00,WeatherDisplay:10.37,2013-07-20 06:15:00,
2013-07-20 00:20:00,61.4,40.4,29.76,ENE,75,2.0,2.0,46,0.00,CLR,SKC,0.00,WeatherDisplay:10.37,2013-07-20 06:20:00,
2013-07-20 00:25:00,60.9,41.6,29.76,ENE,74,0.0,0.0,49,0.00,CLR,SKC,0.00,WeatherDisplay:10.37,2013-07-20 06:25:00,
2013-07-20 00:31:00,60.8,42.0,29.76,ENE,74,0.0,0.0,50,0.00,CLR,SKC,0.00,WeatherDisplay:10.37,2013-07-20 06:31:00,
2013-07-20 00:37:00,60.7,42.5,29.76,ENE,74,0.0,0.0,51,0.00,CLR,SKC,0.00,WeatherDisplay:10.37,2013-07-20 06:37:00,
2013-07-20 00:42:00,60.2,43.0,29.76,ENE,74,1.1,1.1,53,0.00,CLR,SKC,0.00,WeatherDisplay:10.37,2013-07-20 06:42:00,
2013-07-20 00:47:00,59.7,39.4,29.76,ENE,74,0.0,0.0,47,0.00,CLR,SKC,0.00,WeatherDisplay:10.37,2013-07-20 06:47:00,
2013-07-20 00:53:00,59.8,43.6,29.76,ENE,74,0.0,0.0,55,0.00,CLR,SKC,0.00,WeatherDisplay:10.37,2013-07-20 06:53:00,
2013-07-20 00:58:00,59.3,41.7,29.77,East,87,1.1,1.1,52,0.00,CLR,SKC,0.00,WeatherDisplay:10.37,2013-07-20 06:58:00,
2013-07-20 01:03:00,59.1,42.9,29.77,WNW,285,2.3,2.3,55,0.00,CLR,SKC,0.00,WeatherDisplay:10.37,2013-07-20 07:03:00,
2013-07-20 01:08:00,58.8,41.2,29.77,WNW,285,1.1,1.1,52,0.00,CLR,SKC,0.00,WeatherDisplay:10.37,2013-07-20 07:08:00,
2013-07-20 01:13:00,58.6,40.5,29.77,WSW,238,1.1,0.0,51,0.00,CLR,SKC,0.00,WeatherDisplay:10.37,2013-07-20 07:13:00,
2013-07-20 01:18:00,58.2,41.6,29.77,WSW,238,1.1,0.0,54,0.00,CLR,SKC,0.00,WeatherDisplay:10.37,2013-07-20 07:18:00,
2013-07-20 01:23:00,58.1,43.8,29.77,WSW,238,0.0,0.0,59,0.00,CLR,SKC,0.00,WeatherDisplay:10.37,2013-07-20 07:23:00,
2013-07-20 06:41:00,48.3,42.7,29.80,WSW,238,0.0,0.0,81,0.00,CLR,SKC,0.00,WeatherDisplay:10.37,2013-07-20 12:41:00,
2013-07-20 06:46:00,48.2,42.6,29.80,WSW,238,0.0,0.0,81,0.00,CLR,SKC,0.00,WeatherDisplay:10.37,2013-07-20 12:46:00,
2013-07-20 06:51:00,48.2,42.6,29.80,WSW,238,0.0,0.0,81,0.00,CLR,SKC,0.00,WeatherDisplay:10.37,2013-07-20 12:51:00,
2013-07-20 06:56:00,48.3,42.7,29.80,WSW,238,0.0,0.0,81,0.00,CLR,SKC,0.00,WeatherDisplay:10.37,2013-07-20 12:56:00,
2013-07-20 07:01:00,48.4,42.8,29.80,WSW,238,0.0,0.0,81,0.00,CLR,SKC,0.00,WeatherDisplay:10.37,2013-07-20 13:01:00,
2013-07-20 07:07:00,48.6,43.4,29.80,WSW,238,0.0,0.0,82,0.00,CLR,SKC,0.00,WeatherDisplay:10.37,2013-07-20 13:07:00,
2013-07-20 07:12:00,48.7,42.8,29.80,WSW,238,0.0,0.0,80,0.00,CLR,SKC,0.00,WeatherDisplay:10.37,2013-07-20 13:12:00,
2013-07-20 07:17:00,49.1,42.9,29.81,WSW,238,0.0,0.0,79,0.00,CLR,SKC,0.00,WeatherDisplay:10.37,2013-07-20 13:17:00,
2013-07-20 07:22:00,49.3,43.1,29.81,WSW,238,0.0,0.0,79,0.00,CLR,SKC,0.00,WeatherDisplay:10.37,2013-07-20 13:22:00,
2013-07-20 07:27:00,49.6,43.4,29.81,WSW,238,0.0,0.0,79,0.00,CLR,SKC,0.00,WeatherDisplay:10.37,2013-07-20 13:27:00,
2013-07-20 07:33:00,49.9,43.0,29.81,WSW,238,0.0,0.0,77,0.00,CLR,SKC,0.00,WeatherDisplay:10.37,2013-07-20 13:33:00,
2013-07-20 07:38:00,50.2,42.9,29.81,WSW,238,0.0,0.0,76,0.00,CLR,SKC,0.00,WeatherDisplay:10.37,2013-07-20 13:38:00,
2013-07-20 07:43:00,50.6,43.0,29.81,WSW,238,0.0,0.0,75,0.00,CLR,SKC,0.00,WeatherDisplay:10.37,2013-07-20 13:43:00,
2013-07-20 07:48:00,51.1,43.1,29.81,WSW,238,0.0,0.0,74,0.00,CLR,SKC,0.00,WeatherDisplay:10.37,2013-07-20 13:48:00,
2013-07-20 07:53:00,51.6,43.9,29.81,WSW,238,0.0,0.0,75,0.00,CLR,SKC,0.00,WeatherDisplay:10.37,2013-07-20 13:53:00,
2013-07-20 07:58:00,52.1,44.1,29.81,WSW,238,0.0,0.0,74,0.00,CLR,SKC,0.00,WeatherDisplay:10.37,2013-07-20 13:58:00,
2013-07-20 08:04:00,52.6,44.2,29.81,WSW,238,0.0,0.0,73,0.00,CLR,SKC,0.00,WeatherDisplay:10.37,2013-07-20 14:04:00,
2013-07-20 08:09:00,53.0,44.2,29.81,WSW,238,0.0,0.0,72,0.00,CLR,SKC,0.00,WeatherDisplay:10.37,2013-07-20 14:09:00,
2013-07-20 08:14:00,53.5,44.7,29.81,WSW,238,0.0,0.0,72,0.00,CLR,SKC,0.00,WeatherDisplay:10.37,2013-07-20 14:14:00,
2013-07-20 08:19:00,54.0,45.5,29.81,WSW,238,0.0,0.0,73,0.00,CLR,SKC,0.00,WeatherDisplay:10.37,2013-07-20 14:19:00,
2013-07-20 08:23:00,54.5,46.0,29.81,WSW,238,0.0,0.0,73,0.00,CLR,SKC,0.00,WeatherDisplay:10.37,2013-07-20 14:23:00,
2013-07-20 08:28:00,55.1,46.6,29.81,WSW,238,0.0,0.0,73,0.00,CLR,SKC,0.00,WeatherDisplay:10.37,2013-07-20 14:28:00,
2013-07-20 08:33:00,56.0,46.7,29.81,WSW,238,0.0,0.0,71,0.00,CLR,SKC,0.00,WeatherDisplay:10.37,2013-07-20 14:33:00,
2013-07-20 08:38:00,56.7,47.0,29.81,WSW,238,0.0,0.0,70,0.00,CLR,SKC,0.00,WeatherDisplay:10.37,2013-07-20 14:38:00,
2013-07-20 08:44:00,57.2,47.1,29.81,WSW,238,0.0,0.0,69,0.00,CLR,SKC,0.00,WeatherDisplay:10.37,2013-07-20 14:44:00,
2013-07-20 08:49:00,57.6,47.1,29.81,WSW,238,0.0,0.0,68,0.00,CLR,SKC,0.00,WeatherDisplay:10.37,2013-07-20 14:49:00,
2013-07-20 08:54:00,58.0,47.5,29.81,WSW,238,0.0,0.0,68,0.00,CLR,SKC,0.00,WeatherDisplay:10.37,2013-07-20 14:54:00,
2013-07-20 08:59:00,58.3,47.8,29.81,WSW,238,0.0,0.0,68,0.00,CLR,SKC,0.00,WeatherDisplay:10.37,2013-07-20 14:59:00,
2013-07-20 09:04:00,58.9,48.0,29.81,WSW,238,0.0,0.0,67,0.00,CLR,SKC,0.00,WeatherDisplay:10.37,2013-07-20 15:04:00,
2013-07-20 09:09:00,59.5,48.1,29.81,WSW,238,0.0,0.0,66,0.00,CLR,SKC,0.00,WeatherDisplay:10.37,2013-07-20 15:09:00,
2013-07-20 09:15:00,60.2,48.4,29.81,WSW,238,0.0,0.0,65,0.00,CLR,SKC,0.00,WeatherDisplay:10.37,2013-07-20 15:15:00,
2013-07-20 09:20:00,60.6,47.1,29.81,WSW,238,0.0,0.0,61,0.00,CLR,SKC,0.00,WeatherDisplay:10.37,2013-07-20 15:20:00,
2013-07-20 09:25:00,61.1,47.1,29.80,WSW,238,0.0,0.0,60,0.00,CLR,SKC,0.00,WeatherDisplay:10.37,2013-07-20 15:25:00,
2013-07-20 09:30:00,61.7,47.7,29.80,WSW,238,0.0,0.0,60,0.00,CLR,SKC,0.00,WeatherDisplay:10.37,2013-07-20 15:30:00,
2013-07-20 09:35:00,62.2,45.8,29.80,WSW,238,1.1,0.0,55,0.00,CLR,SKC,0.00,WeatherDisplay:10.37,2013-07-20 15:35:00,
2013-07-20 09:40:00,62.7,47.2,29.80,WSW,238,1.1,0.0,57,0.00,CLR,SKC,0.00,WeatherDisplay:10.37,2013-07-20 15:40:00,
2013-07-20 09:45:00,63.1,47.1,29.80,WSW,238,0.0,0.0,56,0.00,CLR,SKC,0.00,WeatherDisplay:10.37,2013-07-20 15:45:00,
2013-07-20 09:50:00,63.5,47.5,29.80,WSW,238,0.0,0.0,56,0.00,CLR,SKC,0.00,WeatherDisplay:10.37,2013-07-20 15:50:00,
2013-07-20 09:55:00,64.1,48.1,29.80,SW,219,0.0,0.0,56,0.00,CLR,SKC,0.00,WeatherDisplay:10.37,2013-07-20 15:55:00,
2013-07-20 10:00:00,64.8,48.7,29.80,SW,219,0.0,0.1,56,0.00,CLR,SKC,0.00,WeatherDisplay:10.37,2013-07-20 16:00:00,
2013-07-20 10:05:00,65.4,47.3,29.80,SW,219,0.0,0.0,52,0.00,CLR,SKC,0.00,WeatherDisplay:10.37,2013-07-20 16:05:00,
2013-07-20 10:10:00,66.3,46.6,29.79,SW,218,0.0,0.0,49,0.00,CLR,SKC,0.00,WeatherDisplay:10.37,2013-07-20 16:10:00,
2013-07-20 10:15:00,67.0,44.9,29.79,SSE,162,1.1,0.0,45,0.00,CLR,SKC,0.00,WeatherDisplay:10.37,2013-07-20 16:15:00,
2013-07-20 10:20:00,67.6,46.1,29.79,SSE,162,1.0,1.0,46,0.00,CLR,SKC,0.00,WeatherDisplay:10.37,2013-07-20 16:20:00,
2013-07-20 10:25:00,68.2,46.0,29.79,SE,128,1.1,0.0,45,0.00,CLR,SKC,0.00,WeatherDisplay:10.37,2013-07-20 16:25:00,
2013-07-20 10:30:00,68.5,45.7,29.79,SE,128,0.0,0.0,44,0.00,CLR,SKC,0.00,WeatherDisplay:10.37,2013-07-20 16:30:00,
2013-07-20 10:35:00,68.8,48.3,29.78,South,176,3.5,3.5,48,0.00,CLR,SKC,0.00,WeatherDisplay:10.37,2013-07-20 16:35:00,
2013-07-20 10:40:00,69.2,46.4,29.78,South,176,1.1,0.0,44,0.00,CLR,SKC,0.00,WeatherDisplay:10.37,2013-07-20 16:40:00,
2013-07-20 10:45:00,69.6,47.3,29.78,South,178,2.3,2.3,45,0.00,CLR,SKC,0.00,WeatherDisplay:10.37,2013-07-20 16:45:00,
2013-07-20 10:50:00,70.0,46.5,29.78,South,184,0.0,0.0,43,0.00,CLR,SKC,0.00,WeatherDisplay:10.37,2013-07-20 16:50:00,
2013-07-20 10:55:00,70.5,46.9,29.77,South,184,0.0,0.0,43,0.00,CLR,SKC,0.00,WeatherDisplay:10.37,2013-07-20 16:55:00,
2013-07-20 11:01:00,71.2,45.6,29.77,South,184,1.1,1.1,40,0.00,CLR,SKC,0.00,WeatherDisplay:10.37,2013-07-20 17:01:00,
2013-07-20 11:06:00,71.8,46.8,29.77,SE,145,0.0,0.0,41,0.00,CLR,SKC,0.00,WeatherDisplay:10.37,2013-07-20 17:06:00,
2013-07-20 11:11:00,72.4,48.0,29.77,South,182,0.0,0.0,42,0.00,CLR,SKC,0.00,WeatherDisplay:10.37,2013-07-20 17:11:00,
2013-07-20 11:16:00,73.1,49.3,29.77,South,180,0.0,0.0,43,0.00,CLR,SKC,0.00,WeatherDisplay:10.37,2013-07-20 17:16:00,
2013-07-20 11:21:00,73.7,47.9,29.77,East,83,1.1,1.1,40,0.00,CLR,SKC,0.00,WeatherDisplay:10.37,2013-07-20 17:21:00,
2013-07-20 11:26:00,74.2,46.2,29.76,ENE,64,1.0,1.0,37,0.00,CLR,SKC,0.00,WeatherDisplay:10.37,2013-07-20 17:26:00,
2013-07-20 11:31:00,74.7,46.7,29.76,ENE,64,2.3,2.3,37,0.00,CLR,SKC,0.00,WeatherDisplay:10.37,2013-07-20 17:31:00,
2013-07-20 11:36:00,75.1,47.8,29.76,ENE,63,1.1,0.0,38,0.00,CLR,SKC,0.00,WeatherDisplay:10.37,2013-07-20 17:36:00,
2013-07-20 11:41:00,75.6,44.5,29.76,ENE,63,1.1,1.1,33,0.00,CLR,SKC,0.00,WeatherDisplay:10.37,2013-07-20 17:41:00,
2013-07-20 11:46:00,76.1,49.3,29.75,ENE,59,0.0,0.0,39,0.00,CLR,SKC,0.00,WeatherDisplay:10.37,2013-07-20 17:46:00,
2013-07-20 11:51:00,76.5,44.4,29.75,East,98,2.3,2.3,32,0.00,CLR,SKC,0.00,WeatherDisplay:10.37,2013-07-20 17:51:00,
2013-07-20 11:56:00,77.2,42.5,29.75,East,98,0.0,0.0,29,0.00,CLR,SKC,0.00,WeatherDisplay:10.37,2013-07-20 17:56:00,
2013-07-20 12:01:00,77.8,41.1,29.75,East,83,1.1,1.1,27,0.00,CLR,SKC,0.00,WeatherDisplay:10.37,2013-07-20 18:01:00,
2013-07-20 12:06:00,78.4,46.1,29.75,East,84,0.0,0.0,32,0.00,CLR,SKC,0.00,WeatherDisplay:10.37,2013-07-20 18:06:00,
2013-07-20 12:11:00,78.8,42.9,29.74,ESE,105,0.0,0.0,28,0.00,CLR,SKC,0.00,WeatherDisplay:10.37,2013-07-20 18:11:00,
2013-07-20 12:16:00,79.1,40.2,29.74,NNE,19,1.1,0.0,25,0.00,CLR,SKC,0.00,WeatherDisplay:10.37,2013-07-20 18:16:00,
2013-07-20 12:22:00,79.5,43.5,29.74,ESE,111,1.1,0.0,28,0.00,CLR,SKC,0.00,WeatherDisplay:10.37,2013-07-20 18:22:00,
2013-07-20 12:27:00,80.0,42.0,29.74,East,90,2.3,2.3,26,0.00,CLR,SKC,0.00,WeatherDisplay:10.37,2013-07-20 18:27:00,
2013-07-20 12:32:00,80.2,41.2,29.74,East,84,1.1,1.1,25,0.00,CLR,SKC,0.00,WeatherDisplay:10.37,2013-07-20 18:32:00,
2013-07-20 12:37:00,80.5,40.4,29.73,East,85,1.1,1.1,24,0.00,CLR,SKC,0.00,WeatherDisplay:10.37,2013-07-20 18:37:00,
2013-07-20 12:42:00,81.0,43.9,29.73,ESE,119,2.3,2.3,27,0.00,CLR,SKC,0.00,WeatherDisplay:10.37,2013-07-20 18:42:00,
2013-07-20 12:47:00,81.5,42.3,29.73,East,85,1.1,1.1,25,0.00,CLR,SKC,0.00,WeatherDisplay:10.37,2013-07-20 18:47:00,
2013-07-20 12:52:00,82.0,44.7,29.73,SW,233,2.3,2.3,27,0.00,CLR,SKC,0.00,WeatherDisplay:10.37,2013-07-20 18:52:00,
2013-07-20 12:57:00,82.6,41.0,29.73,ENE,72,1.1,1.1,23,0.00,CLR,SKC,0.00,WeatherDisplay:10.37,2013-07-20 18:57:00,
2013-07-20 13:02:00,83.1,41.5,29.72,East,80,1.1,1.1,23,0.00,CLR,SKC,0.00,WeatherDisplay:10.37,2013-07-20 19:02:00,
2013-07-20 13:07:00,83.6,39.5,29.72,NNE,12,1.1,1.1,21,0.00,CLR,SKC,0.00,WeatherDisplay:10.37,2013-07-20 19:07:00,
2013-07-20 13:11:00,83.9,38.5,29.72,SSE,147,2.3,0.0,20,0.00,CLR,SKC,0.00,WeatherDisplay:10.37,2013-07-20 19:11:00,
2013-07-20 13:16:00,83.8,40.9,29.72,SSW,200,2.3,2.3,22,0.00,CLR,SKC,0.00,WeatherDisplay:10.37,2013-07-20 19:16:00,
2013-07-20 13:22:00,84.1,39.9,29.72,NNE,26,2.3,2.3,21,0.00,CLR,SKC,0.00,WeatherDisplay:10.37,2013-07-20 19:22:00,
2013-07-20 13:27:00,84.2,40.0,29.71,South,180,3.5,3.5,21,0.00,CLR,SKC,0.00,WeatherDisplay:10.37,2013-07-20 19:27:00,
2013-07-20 13:33:00,84.3,41.3,29.71,South,179,0.0,0.1,22,0.00,CLR,SKC,0.00,WeatherDisplay:10.37,2013-07-20 19:33:00,
2013-07-20 13:38:00,84.8,37.9,29.71,SE,135,2.3,2.3,19,0.00,CLR,SKC,0.00,WeatherDisplay:10.37,2013-07-20 19:38:00,
2013-07-20 13:43:00,84.8,39.3,29.71,SE,142,1.1,1.1,20,0.00,CLR,SKC,0.00,WeatherDisplay:10.37,2013-07-20 19:43:00,
2013-07-20 13:48:00,85.5,38.5,29.70,ENE,63,2.3,2.3,19,0.00,CLR,SKC,0.00,WeatherDisplay:10.37,2013-07-20 19:48:00,
2013-07-20 13:53:00,86.1,39.0,29.70,SSE,162,3.0,3.0,19,0.00,CLR,SKC,0.00,WeatherDisplay:10.37,2013-07-20 19:53:00,
2013-07-20 13:58:00,85.7,38.7,29.70,NNW,346,2.3,2.3,19,0.00,CLR,SKC,0.00,WeatherDisplay:10.37,2013-07-20 19:58:00,
2013-07-20 14:03:00,86.1,39.0,29.70,NNW,333,2.3,2.3,19,0.00,CLR,SKC,0.00,WeatherDisplay:10.37,2013-07-20 20:03:00,
2013-07-20 14:08:00,86.5,38.0,29.69,NE,35,2.3,2.3,18,0.00,CLR,SKC,0.00,WeatherDisplay:10.37,2013-07-20 20:08:00,
2013-07-20 14:13:00,86.9,41.0,29.69,North,360,1.1,1.1,20,0.00,CLR,SKC,0.00,WeatherDisplay:10.37,2013-07-20 20:13:00,
2013-07-20 14:18:00,87.4,42.7,29.69,ENE,67,1.1,1.1,21,0.00,CLR,SKC,0.00,WeatherDisplay:10.37,2013-07-20 20:18:00,
2013-07-20 14:23:00,87.8,39.0,29.69,NE,38,2.3,2.3,18,0.00,CLR,SKC,0.00,WeatherDisplay:10.37,2013-07-20 20:23:00,
2013-07-20 14:28:00,88.3,39.4,29.68,NE,42,1.1,1.1,18,0.00,CLR,SKC,0.00,WeatherDisplay:10.37,2013-07-20 20:28:00,
2013-07-20 14:33:00,88.7,39.7,29.68,NE,42,2.3,2.3,18,0.00,CLR,SKC,0.00,WeatherDisplay:10.37,2013-07-20 20:33:00,
2013-07-20 14:38:00,88.7,39.7,29.68,NE,52,3.5,3.5,18,0.00,CLR,SKC,0.00,WeatherDisplay:10.37,2013-07-20 20:38:00,
2013-07-20 14:44:00,88.9,39.9,29.68,NNE,24,0.0,2.0,18,0.00,CLR,SKC,0.00,WeatherDisplay:10.37,2013-07-20 20:44:00,
2013-07-20 14:49:00,89.2,41.5,29.67,ENE,60,3.5,3.5,19,0.00,CLR,SKC,0.00,WeatherDisplay:10.37,2013-07-20 20:49:00,
2013-07-20 14:54:00,88.8,39.8,29.67,ENE,63,1.1,0.0,18,0.00,CLR,SKC,0.00,WeatherDisplay:10.37,2013-07-20 20:54:00,
2013-07-20 15:00:00,89.6,40.5,29.67,SE,140,3.5,3.5,18,0.00,CLR,SKC,0.00,WeatherDisplay:10.37,2013-07-20 21:00:00,
2013-07-20 15:05:00,89.8,40.6,29.66,NE,46,3.5,3.5,18,0.00,CLR,SKC,0.00,WeatherDisplay:10.37,2013-07-20 21:05:00,
2013-07-20 15:10:00,89.8,40.6,29.66,North,355,2.3,2.3,18,0.00,CLR,SKC,0.00,WeatherDisplay:10.37,2013-07-20 21:10:00,
2013-07-20 15:15:00,89.8,40.6,29.66,NE,51,1.0,1.0,18,0.00,CLR,SKC,0.00,WeatherDisplay:10.37,2013-07-20 21:15:00,
2013-07-20 15:21:00,90.2,39.5,29.65,NNE,25,0.0,0.0,17,0.00,CLR,SKC,0.00,WeatherDisplay:10.37,2013-07-20 21:21:00,
2013-07-20 15:27:00,91.5,40.5,29.65,SSE,162,2.0,2.0,17,0.00,CLR,SKC,0.00,WeatherDisplay:10.37,2013-07-20 21:27:00,
2013-07-20 15:32:00,91.2,40.3,29.65,ENE,63,2.3,2.3,17,0.00,CLR,SKC,0.00,WeatherDisplay:10.37,2013-07-20 21:32:00,
2013-07-20 15:37:00,91.1,44.4,29.65,ENE,61,1.1,1.1,20,0.00,CLR,SKC,0.00,WeatherDisplay:10.37,2013-07-20 21:37:00,
2013-07-20 15:42:00,91.2,40.3,29.65,NNE,13,3.5,3.5,17,0.00,CLR,SKC,0.00,WeatherDisplay:10.37,2013-07-20 21:42:00,
2013-07-20 15:48:00,91.2,40.3,29.64,NE,48,2.3,2.3,17,0.00,CLR,SKC,0.00,WeatherDisplay:10.37,2013-07-20 21:48:00,
2013-07-20 15:54:00,91.2,38.7,29.64,East,82,1.0,2.0,16,0.00,CLR,SKC,0.00,WeatherDisplay:10.37,2013-07-20 21:54:00,
2013-07-20 15:59:00,90.4,38.1,29.64,SE,137,1.0,3.0,16,0.00,CLR,SKC,0.00,WeatherDisplay:10.37,2013-07-20 21:59:00,
2013-07-20 16:04:00,90.5,41.2,29.64,SW,230,2.3,2.3,18,0.00,CLR,SKC,0.00,WeatherDisplay:10.37,2013-07-20 22:04:00,
2013-07-20 16:09:00,90.4,39.6,29.63,South,184,3.5,3.5,17,0.00,CLR,SKC,0.00,WeatherDisplay:10.37,2013-07-20 22:09:00,
2013-07-20 16:14:00,90.6,42.7,29.63,East,83,1.1,1.1,19,0.00,CLR,SKC,0.00,WeatherDisplay:10.37,2013-07-20 22:14:00,
2013-07-20 16:19:00,91.2,43.2,29.63,SSE,148,2.0,2.0,19,0.00,CLR,SKC,0.00,WeatherDisplay:10.37,2013-07-20 22:19:00,
2013-07-20 16:24:00,91.2,40.3,29.63,ENE,78,2.3,2.3,17,0.00,CLR,SKC,0.00,WeatherDisplay:10.37,2013-07-20 22:24:00,
2013-07-20 16:29:00,91.6,39.1,29.62,ENE,76,1.1,1.1,16,0.00,CLR,SKC,0.00,WeatherDisplay:10.37,2013-07-20 22:29:00,
2013-07-20 16:34:00,92.2,37.9,29.62,ENE,76,0.0,0.0,15,0.00,CLR,SKC,0.00,WeatherDisplay:10.37,2013-07-20 22:34:00,
2013-07-20 16:43:00,92.4,44.2,29.62,South,184,2.3,2.3,19,0.00,CLR,SKC,0.00,WeatherDisplay:10.37,2013-07-20 22:43:00,
2013-07-20 16:48:00,91.5,40.5,29.62,WSW,245,3.5,3.5,17,0.00,CLR,SKC,0.00,WeatherDisplay:10.37,2013-07-20 22:48:00,
2013-07-20 16:53:00,90.9,42.9,29.62,SSW,204,0.0,3.0,19,0.00,CLR,SKC,0.00,WeatherDisplay:10.37,2013-07-20 22:53:00,
2013-07-20 16:59:00,90.3,39.6,29.61,South,182,2.3,2.3,17,0.00,CLR,SKC,0.00,WeatherDisplay:10.37,2013-07-20 22:59:00,
2013-07-20 17:04:00,89.9,42.1,29.61,SW,215,3.5,3.5,19,0.00,CLR,SKC,0.00,WeatherDisplay:10.37,2013-07-20 23:04:00,
2013-07-20 17:09:00,89.8,39.2,29.61,SW,215,0.0,0.0,17,0.00,CLR,SKC,0.00,WeatherDisplay:10.37,2013-07-20 23:09:00,
2013-07-20 17:14:00,90.0,43.5,29.60,SW,215,0.0,0.1,20,0.00,CLR,SKC,0.00,WeatherDisplay:10.37,2013-07-20 23:14:00,
2013-07-20 17:19:00,89.8,42.0,29.60,South,185,1.1,0.0,19,0.00,CLR,SKC,0.00,WeatherDisplay:10.37,2013-07-20 23:19:00,
2013-07-20 17:24:00,89.5,40.4,29.60,South,185,1.1,1.1,18,0.00,CLR,SKC,0.00,WeatherDisplay:10.37,2013-07-20 23:24:00,
2013-07-20 17:29:00,89.3,45.5,29.60,South,185,1.1,1.1,22,0.00,CLR,SKC,0.00,WeatherDisplay:10.37,2013-07-20 23:29:00,
2013-07-20 17:34:00,88.8,38.4,29.60,SSW,202,1.0,2.0,17,0.00,CLR,SKC,0.00,WeatherDisplay:10.37,2013-07-20 23:34:00,
2013-07-20 17:39:00,88.4,39.5,29.60,SW,225,0.0,2.0,18,0.00,CLR,SKC,0.00,WeatherDisplay:10.37,2013-07-20 23:39:00,
2013-07-20 17:45:00,88.3,36.4,29.59,WSW,243,0.0,0.0,16,0.00,CLR,SKC,0.00,WeatherDisplay:10.37,2013-07-20 23:45:00,
2013-07-20 17:50:00,88.6,44.9,29.59,WSW,242,1.0,1.0,22,0.00,CLR,SKC,0.00,WeatherDisplay:10.37,2013-07-20 23:50:00,
2013-07-20 17:56:00,88.4,40.9,29.59,SW,223,1.1,1.1,19,0.00,CLR,SKC,0.00,WeatherDisplay:10.37,2013-07-20 23:56:00,
2013-07-20 18:01:00,88.4,48.1,29.59,SSW,211,2.0,2.0,25,0.00,CLR,SKC,0.00,WeatherDisplay:10.37,2013-07-21 00:01:00,
2013-07-20 18:05:00,88.1,43.2,29.59,SSW,198,1.1,1.1,21,0.00,CLR,SKC,0.00,WeatherDisplay:10.37,2013-07-21 00:05:00,
2013-07-20 18:10:00,87.9,45.5,29.59,SSW,198,0.0,0.0,23,0.00,CLR,SKC,0.00,WeatherDisplay:10.37,2013-07-21 00:10:00,
2013-07-20 18:15:00,87.9,45.5,29.59,SSW,198,0.0,0.0,23,0.00,CLR,SKC,0.00,WeatherDisplay:10.37,2013-07-21 00:15:00,
2013-07-20 18:20:00,87.7,44.1,29.59,SSW,198,1.1,0.0,22,0.00,CLR,SKC,0.00,WeatherDisplay:10.37,2013-07-21 00:20:00,
2013-07-20 18:27:00,87.7,42.9,29.58,SSW,198,0.0,0.0,21,0.00,CLR,SKC,0.00,WeatherDisplay:10.37,2013-07-21 00:27:00,
2013-07-20 18:32:00,87.6,44.1,29.58,SSW,198,0.0,0.0,22,0.00,CLR,SKC,0.00,WeatherDisplay:10.37,2013-07-21 00:32:00,
2013-07-20 18:37:00,87.2,44.9,29.58,SSW,198,0.0,0.0,23,0.00,CLR,SKC,0.00,WeatherDisplay:10.37,2013-07-21 00:37:00,
2013-07-20 18:42:00,86.9,45.8,29.58,SSW,198,0.0,0.0,24,0.00,CLR,SKC,0.00,WeatherDisplay:10.37,2013-07-21 00:42:00,
2013-07-20 18:47:00,86.8,47.8,29.58,SSW,198,0.0,0.0,26,0.00,CLR,SKC,0.00,WeatherDisplay:10.37,2013-07-21 00:47:00,
2013-07-20 18:53:00,86.4,47.5,29.58,SSW,198,1.0,1.0,26,0.00,CLR,SKC,0.00,WeatherDisplay:10.37,2013-07-21 00:53:00,
2013-07-20 18:58:00,86.2,49.3,29.58,SSW,198,0.0,0.0,28,0.00,CLR,SKC,0.00,WeatherDisplay:10.37,2013-07-21 00:58:00,
2013-07-20 19:03:00,85.9,47.0,29.58,SSW,198,0.0,0.0,26,0.00,CLR,SKC,0.00,WeatherDisplay:10.37,2013-07-21 01:03:00,
2013-07-20 19:09:00,85.6,44.7,29.58,SSW,198,0.0,0.0,24,0.00,CLR,SKC,0.00,WeatherDisplay:10.37,2013-07-21 01:09:00,
2013-07-20 19:15:00,84.4,44.7,29.58,SW,219,3.5,3.5,25,0.00,CLR,SKC,0.00,WeatherDisplay:10.37,2013-07-21 01:15:00,
2013-07-20 19:20:00,84.5,44.8,29.58,WSW,257,3.0,3.0,25,0.00,CLR,SKC,0.00,WeatherDisplay:10.37,2013-07-21 01:20:00,
2013-07-20 19:25:00,85.0,44.2,29.58,SSE,166,2.3,2.3,24,0.00,CLR,SKC,0.00,WeatherDisplay:10.37,2013-07-21 01:25:00,
2013-07-20 19:30:00,84.9,44.1,29.58,SW,227,2.3,2.3,24,0.00,CLR,SKC,0.00,WeatherDisplay:10.37,2013-07-21 01:30:00,
2013-07-20 19:35:00,84.6,42.7,29.58,SW,219,1.1,1.1,23,0.00,CLR,SKC,0.00,WeatherDisplay:10.37,2013-07-21 01:35:00,
2013-07-20 19:40:00,84.4,42.5,29.58,SW,225,2.3,2.3,23,0.00,CLR,SKC,0.00,WeatherDisplay:10.37,2013-07-21 01:40:00,
2013-07-20 19:45:00,84.5,43.7,29.58,South,169,2.3,2.3,24,0.00,CLR,SKC,0.00,WeatherDisplay:10.37,2013-07-21 01:45:00,
2013-07-20 19:50:00,84.3,40.1,29.58,SSW,198,2.3,2.3,21,0.00,CLR,SKC,0.00,WeatherDisplay:10.37,2013-07-21 01:50:00,
2013-07-20 19:56:00,84.1,43.4,29.58,SSW,213,2.0,2.0,24,0.00,CLR,SKC,0.00,WeatherDisplay:10.37,2013-07-21 01:56:00,
2013-07-20 20:01:00,83.9,41.0,29.58,SSW,203,3.5,3.5,22,0.00,CLR,SKC,0.00,WeatherDisplay:10.37,2013-07-21 02:01:00,
2013-07-20 20:07:00,83.9,43.2,29.59,WNW,292,2.3,2.3,24,0.00,CLR,SKC,0.00,WeatherDisplay:10.37,2013-07-21 02:07:00,
2013-07-20 20:12:00,83.5,40.6,29.59,West,273,1.1,1.1,22,0.00,CLR,SKC,0.00,WeatherDisplay:10.37,2013-07-21 02:12:00,
2013-07-20 20:17:00,82.8,43.4,29.59,WSW,240,1.1,1.1,25,0.00,CLR,SKC,0.00,WeatherDisplay:10.37,2013-07-21 02:17:00,
2013-07-20 20:22:00,82.1,42.8,29.59,South,186,1.1,0.0,25,0.00,CLR,SKC,0.00,WeatherDisplay:10.37,2013-07-21 02:22:00,
2013-07-20 20:27:00,81.4,41.1,29.59,SW,223,1.1,1.1,24,0.00,CLR,SKC,0.00,WeatherDisplay:10.37,2013-07-21 02:27:00,
2013-07-20 20:32:00,81.0,40.8,29.59,WSW,250,1.1,1.1,24,0.00,CLR,SKC,0.00,WeatherDisplay:10.37,2013-07-21 02:32:00,
2013-07-20 20:38:00,80.7,42.6,29.59,WSW,250,0.0,0.0,26,0.00,CLR,SKC,0.00,WeatherDisplay:10.37,2013-07-21 02:38:00,
2013-07-20 20:43:00,80.3,41.3,29.59,West,271,3.5,0.0,25,0.00,CLR,SKC,0.00,WeatherDisplay:10.37,2013-07-21 02:43:00,
2013-07-20 20:49:00,80.0,40.0,29.59,WSW,239,1.0,3.0,24,0.00,CLR,SKC,0.00,WeatherDisplay:10.37,2013-07-21 02:49:00,
2013-07-20 20:54:00,80.0,42.0,29.59,SW,217,2.3,2.3,26,0.00,CLR,SKC,0.00,WeatherDisplay:10.37,2013-07-21 02:54:00,
2013-07-20 20:59:00,79.8,41.9,29.59,SW,226,2.3,2.3,26,0.00,CLR,SKC,0.00,WeatherDisplay:10.37,2013-07-21 02:59:00,
2013-07-20 21:04:00,79.7,39.7,29.60,SW,224,2.3,2.3,24,0.00,CLR,SKC,0.00,WeatherDisplay:10.37,2013-07-21 03:04:00,
2013-07-20 21:10:00,79.3,41.4,29.60,West,259,2.3,2.3,26,0.00,CLR,SKC,0.00,WeatherDisplay:10.37,2013-07-21 03:10:00,
2013-07-20 21:16:00,79.4,40.5,29.60,WSW,250,2.3,2.3,25,0.00,CLR,SKC,0.00,WeatherDisplay:10.37,2013-07-21 03:16:00,
2013-07-20 21:21:00,79.3,39.4,29.60,WSW,247,3.5,3.5,24,0.00,CLR,SKC,0.00,WeatherDisplay:10.37,2013-07-21 03:21:00,
2013-07-20 21:27:00,79.4,40.5,29.60,SW,229,1.1,1.1,25,0.00,CLR,SKC,0.00,WeatherDisplay:10.37,2013-07-21 03:27:00,
2013-07-20 21:32:00,79.2,38.2,29.60,South,178,0.0,0.0,23,0.00,CLR,SKC,0.00,WeatherDisplay:10.37,2013-07-21 03:32:00,
2013-07-20 21:37:00,78.9,36.8,29.61,South,184,2.3,2.3,22,0.00,CLR,SKC,0.00,WeatherDisplay:10.37,2013-07-21 03:37:00,
2013-07-20 21:42:00,78.7,35.5,29.61,SSE,162,2.3,2.3,21,0.00,CLR,SKC,0.00,WeatherDisplay:10.37,2013-07-21 03:42:00,
2013-07-20 21:47:00,78.8,40.0,29.61,SW,233,1.1,1.1,25,0.00,CLR,SKC,0.00,WeatherDisplay:10.37,2013-07-21 03:47:00,
2013-07-20 21:52:00,78.1,39.4,29.62,SW,233,1.1,0.0,25,0.00,CLR,SKC,0.00,WeatherDisplay:10.37,2013-07-21 03:52:00,
2013-07-20 21:57:00,77.2,42.5,29.62,NNW,332,1.1,1.1,29,0.00,CLR,SKC,0.00,WeatherDisplay:10.37,2013-07-21 03:57:00,
2013-07-20 22:01:00,76.4,41.8,29.62,NW,323,1.1,0.0,29,0.00,CLR,SKC,0.00,WeatherDisplay:10.37,2013-07-21 04:01:00,
2013-07-20 22:02:00,76.2,42.5,29.62,NW,323,0.0,0.0,30,0.00,CLR,SKC,0.00,WeatherDisplay:10.37,2013-07-21 04:02:00,
2013-07-20 22:03:00,76.0,40.5,29.62,NW,323,0.0,0.0,28,0.00,CLR,SKC,0.00,WeatherDisplay:10.37,2013-07-21 04:03:00,
2013-07-20 22:04:00,75.8,40.4,29.62,NW,323,0.0,0.0,28,0.00,CLR,SKC,0.00,WeatherDisplay:10.37,2013-07-21 04:04:00,
2013-07-20 22:09:00,74.4,40.9,29.62,NW,323,0.0,0.0,30,0.00,CLR,SKC,0.00,WeatherDisplay:10.37,2013-07-21 04:09:00,
2013-07-20 22:14:00,73.8,42.1,29.62,ENE,78,1.1,1.1,32,0.00,CLR,SKC,0.00,WeatherDisplay:10.37,2013-07-21 04:14:00,
2013-07-20 22:19:00,72.6,39.4,29.62,WSW,238,0.0,0.0,30,0.00,CLR,SKC,0.00,WeatherDisplay:10.37,2013-07-21 04:19:00,
2013-07-20 22:24:00,71.7,41.0,29.63,SW,234,3.5,3.5,33,0.00,CLR,SKC,0.00,WeatherDisplay:10.37,2013-07-21 04:24:00,
2013-07-20 22:29:00,71.3,40.7,29.63,SW,235,0.0,1.0,33,0.00,CLR,SKC,0.00,WeatherDisplay:10.37,2013-07-21 04:29:00,
2013-07-20 22:35:00,69.9,45.1,29.63,West,273,0.0,0.0,41,0.00,CLR,SKC,0.00,WeatherDisplay:10.37,2013-07-21 04:35:00,
2013-07-20 22:41:00,68.8,42.8,29.63,West,273,0.0,0.0,39,0.00,CLR,SKC,0.00,WeatherDisplay:10.37,2013-07-21 04:41:00,
2013-07-20 22:46:00,68.1,44.7,29.63,West,277,2.3,2.3,43,0.00,CLR,SKC,0.00,WeatherDisplay:10.37,2013-07-21 04:46:00,
2013-07-20 22:51:00,67.2,43.9,29.63,West,277,0.0,0.0,43,0.00,CLR,SKC,0.00,WeatherDisplay:10.37,2013-07-21 04:51:00,
2013-07-20 22:56:00,66.3,44.3,29.63,West,277,1.1,1.1,45,0.00,CLR,SKC,0.00,WeatherDisplay:10.37,2013-07-21 04:56:00,
2013-07-20 23:00:00,65.9,46.2,29.63,WNW,286,1.1,0.0,49,0.00,CLR,SKC,0.00,WeatherDisplay:10.37,2013-07-21 05:00:00,
2013-07-20 23:05:00,65.3,45.1,29.63,WNW,284,1.1,1.1,48,0.00,CLR,SKC,0.00,WeatherDisplay:10.37,2013-07-21 05:05:00,
2013-07-20 23:10:00,64.6,41.0,29.63,West,260,2.3,2.3,42,0.00,CLR,SKC,0.00,WeatherDisplay:10.37,2013-07-21 05:10:00,
2013-07-20 23:15:00,64.7,42.9,29.63,WNW,288,3.5,3.5,45,0.00,CLR,SKC,0.00,WeatherDisplay:10.37,2013-07-21 05:15:00,
2013-07-20 23:20:00,64.6,41.6,29.63,West,270,1.1,0.0,43,0.00,CLR,SKC,0.00,WeatherDisplay:10.37,2013-07-21 05:20:00,
2013-07-20 23:25:00,64.6,42.8,29.64,West,270,0.0,0.0,45,0.00,CLR,SKC,0.00,WeatherDisplay:10.37,2013-07-21 05:25:00,
2013-07-20 23:30:00,64.5,42.1,29.64,West,270,1.1,0.0,44,0.00,CLR,SKC,0.00,WeatherDisplay:10.37,2013-07-21 05:30:00,
2013-07-20 23:36:00,63.9,42.7,29.64,WSW,258,2.3,2.3,46,0.00,CLR,SKC,0.00,WeatherDisplay:10.37,2013-07-21 05:36:00,
2013-07-20 23:41:00,63.3,44.3,29.64,WSW,258,0.0,0.0,50,0.00,CLR,SKC,0.00,WeatherDisplay:10.37,2013-07-21 05:41:00,
2013-07-20 23:46:00,62.7,44.3,29.64,WSW,258,0.0,0.0,51,0.00,CLR,SKC,0.00,WeatherDisplay:10.37,2013-07-21 05:46:00,
2013-07-20 23:51:00,62.4,43.5,29.64,West,278,1.1,1.1,50,0.00,CLR,SKC,0.00,WeatherDisplay:10.37,2013-07-21 05:51:00,
2013-07-20 23:56:00,62.2,41.2,29.64,West,278,0.0,0.0,46,0.00,CLR,SKC,0.00,WeatherDisplay:10.37,2013-07-21 05:56:00,